Regional Weather Roundup
Issued by NWS

Home | Current Version | Previous Version | Text Only | Print | Product List | Glossary Off
Versions: 1 2 3 4 5 6 7 8 9 10 11 12 13 14 15 16 17 18 19 20 21 22 23 24 25 26 27 28 29 30 31 32 33 34 35 36 37 38 39 40 41 42 43 44 45 46 47 48 49 50

000
ASUS43 KOAX 231110
RWRNE

WEATHER ROUNDUP FOR NEBRASKA
NATIONAL WEATHER SERVICE OMAHA NE
600 AM CDT FRI JUN 23 2017

NOTES: SATELLITE DATA IS BEING USED TO AUGMENT CLOUD COVER ABOVE
       12000 FEET.
       "FAIR" INDICATES FEW OR NO CLOUDS BELOW 12,000 FEET WITH NO
       SIGNIFICANT WEATHER AND/OR OBSTRUCTIONS TO VISIBILITY.

  * THESE STATIONS DO NOT REPORT WEATHER SUCH AS RAIN...SNOW OR FOG.

NEZ001>004-019>022-054>056-231200-
NEBRASKA PANHANDLE

CITY           SKY/WX    TMP DP  RH WIND       PRES   REMARKS
SCOTTSBLUFF    CLOUDY    54  38  54 NW17G24   30.27R
ALLIANCE       CLOUDY    53  41  63 NW14      30.23R
CHADRON        LGT RAIN  54  43  66 W13G26    30.22R
GORDON         DRIZZLE   50  46  84 NW7       30.20R
KIMBALL        CLOUDY    51  44  77 N17G24    30.28R
SIDNEY         CLOUDY    53  44  71 N14       30.24R
$$

NEZ057>060-069>072-079>082-231200-
SOUTHWEST NEBRASKA

CITY           SKY/WX    TMP DP  RH WIND       PRES   REMARKS
NORTH PLATTE   LGT RAIN  60  43  53 N9        30.11R
IMPERIAL       CLOUDY    58  55  90 N10       30.12R
LEXINGTON      CLOUDY    60  54  80 N8        30.05F
MCCOOK         CLOUDY    59  54  83 N18G30    30.02F
OGALLALA       CLOUDY    61  44  53 N9        30.15R
$$

NEZ005>010-023>029-035>040-094-231200-
NORTH CENTRAL NEBRASKA

CITY           SKY/WX    TMP DP  RH WIND       PRES   REMARKS
VALENTINE      LGT RAIN  60  36  40 NW10      30.12R
AINSWORTH      LGT RAIN  58  42  55 NW18G26   30.10R
BROKEN BOW     CLOUDY    62  39  42 N31G39    30.00R
O`NEILL        CLOUDY    59  42  52 NW18G24   30.04R
ORD            CLOUDY    63  37  38 N20G25    30.02R
THEDFORD       CLOUDY    59  39  47 NW9       30.14R
$$

NEZ041-046>049-061>064-073>077-083>087-231200-
SOUTH CENTRAL NEBRASKA

CITY           SKY/WX    TMP DP  RH WIND       PRES   REMARKS
GRAND ISLAND   CLOUDY    62  55  77 N10       29.98R
AURORA         CLOUDY    61  55  78 NW7       29.99R
HASTINGS       CLOUDY    64  53  67 N15       29.97R
HEBRON         MOCLDY    65  59  79 N14       29.93R
HOLDREGE       CLOUDY    63  48  58 NW12G22   30.04R
KEARNEY *      CLOUDY    63  50  63 N17       30.01R
YORK           CLOUDY    61  55  82 NW12      29.97R
$$

NEZ011>018-030>034-042>045-231200-
NORTHEAST NEBRASKA

CITY           SKY/WX    TMP DP  RH WIND       PRES   REMARKS
NORFOLK        CLOUDY    63  44  50 N20G30    29.93R
ALBION         CLOUDY    66  40  38 NW14G21   29.99R
BLAIR          PTCLDY    62  53  73 N9        29.88R
FREMONT        CLOUDY    60  53  77 NW6       29.89R
TEKAMAH        CLEAR     58  50  75 NW9       29.87R
WAYNE          CLOUDY    64  46  51 N21       29.93R
$$

NEZ050>053-065>068-078-088>093-231200-
SOUTHEAST NEBRASKA

CITY           SKY/WX    TMP DP  RH WIND       PRES   REMARKS
LINCOLN        PTCLDY    66  53  63 NW10      29.91R
OMAHA EPPLEY   PTCLDY    62  56  80 N10       29.86R
BEATRICE       CLEAR     62  58  87 N7        29.87R
FALLS CITY     PTCLDY    67  59  75 N9        29.80R
NEBRASKA CITY  PTCLDY    64  64  99 N6        29.85R
PLATTSMOUTH    PTCLDY    62  56  82 NW6       29.87R
$$

NEZ044-045-051>053-067-231200-
OMAHA AREA

CITY           SKY/WX    TMP DP  RH WIND       PRES   REMARKS
OMAHA EPPLEY   PTCLDY    62  56  80 N10       29.86R
BLAIR          PTCLDY    62  53  73 N9        29.88R
FREMONT        CLOUDY    60  53  77 NW6       29.89R
MILLARD        CLEAR     64  56  77 NW6       29.88R
OFFUTT AFB     PTCLDY    66  54  65 CALM      29.92R
PLATTSMOUTH    PTCLDY    62  56  82 NW6       29.87R
WAHOO          FAIR      60  53  77 NW7       29.89R
$$




USA.gov is the U.S. government's official web portal to all federal, state and local government web resources and services.